STARLINK-34291

Last updated on Thu Jul 03 2025 00:02:06 GMT+0000 (Coordinated Universal Time)

1 64359U 25126R 25183.58335648 -.01416955 00000+0 -17136-1 0 9995 2 64359 69.9993 310.2048 0003160 271.3918 320.3329 15.63229109 4322
UTC large
Height (km)
Speed (km/s)
/
Latitude / Longitude
Inclination (degrees)
Orbital Period (minutes)
Azimuth
Elevation
Range (km)
Doppler Factor

Next 0 passes for location: London (51.5072 / 0.1276)

Sorry there are no passes over London.